アトラス彗星

C/2019 T4 ( ATLAS )

English version
Home page
Updated on July 4, 2022

---------------------------------------------------------------------

・ プロフィール

発見日 2019年10月9日
発見光度 19.3等
発見者 Asteroid Terrestrial-Impact Last Alert System (ATLAS) search program

・ 写真集

・ 軌道要素

Epoch 2022 Jan. 21.0 TT = JDT 2459600.5
T 2022 June  9.17088 TT                                 Rudenko
q   4.2423794            (2000.0)            P               Q
z  +0.0009755      Peri.  351.20605     -0.95991890     +0.05616203
 +/-0.0000009      Node   199.94030     -0.18205825     -0.86982959
e   0.9958614      Incl.   53.62598     -0.21309739     +0.49014519
From 772 observations 2019 Feb. 5-2022 Jan. 28, mean residual 0".4.

・ 星図

・ 光度変化

        m1 = -2.5 + 5 logΔ + 18.0 log r

---------------------------------------------------------------------

軌道要素はM.P.E.C. 2022-C56に掲載されたものです。
星図はステラナビゲータ Ver.10 (アストロアーツ) で作成したものです。
光度グラフはComet for Windowsで作成したものです。

---------------------------------------------------------------------

Copyright(C) Seiichi Yoshida (comet@aerith.net). All rights reserved.